Location: Bühlhof
(48.7849°N, 8.6361°E)
Time: 06:36:55
(UTC+00:00)

Cosmos 1605 Rocket - Pass Details

Date: 19 January 2026
Orbit: 944 x 1005 km, 82.9° (Epoch: 18 February)

Event Time Altitude Azimuth Distance (km) Brightness Sun altitude
Rises 18:30:22 0° 350° (N) 3,745 7.1 -23.9°
Reaches altitude 10° 18:32:55 10° 351° (N) 2,788 6.4 -24.3°
Maximum altitude 18:39:21 90° 75° (ENE) 1,005 3.9 -25.3°
Drops below altitude 10° 18:45:41 10° 173° (S) 2,742 6.3 -26.4°
Sets 18:48:10 0° 173° (S) 3,678 7.0 -26.8°
